Time,TemperatureF,DewpointF,PressureIn,WindDirection,WindDirectionDegrees,WindSpeedMPH,WindSpeedGustMPH,Humidity,HourlyPrecipIn,Conditions,Clouds,dailyrainin,SoftwareType,DateUTC
2013-04-06 18:46:00,6.5,-7.4,30.00,WNW,297,5.0,5.0,52,0.00,,---,0.00,VWS V14.01,2013-04-07 02:46:00,
2013-04-06 18:53:00,6.6,-6.9,30.00,NNW,327,10.0,10.0,53,0.00,,---,0.00,VWS V14.01,2013-04-07 02:53:00,
2013-04-06 18:54:00,6.5,-7.0,30.00,WNW,302,8.0,13.0,53,0.00,,---,0.00,VWS V14.01,2013-04-07 02:54:00,
2013-04-06 18:56:00,6.3,-7.6,30.00,NW,313,9.0,16.0,52,0.00,,---,0.00,VWS V14.01,2013-04-07 02:56:00,
2013-04-06 18:58:00,6.3,-6.8,30.00,NW,310,9.0,15.0,54,0.00,,---,0.00,VWS V14.01,2013-04-07 02:58:00,
2013-04-06 18:59:00,6.3,-7.2,30.00,NNW,333,8.0,15.0,53,0.00,,---,0.00,VWS V14.01,2013-04-07 02:59:00,
2013-04-06 19:00:00,6.3,-7.2,30.00,NW,323,15.0,15.0,53,0.00,,---,0.00,VWS V14.01,2013-04-07 03:00:00,
2013-04-06 19:01:00,6.3,-6.8,30.00,NW,313,11.0,11.0,54,0.00,,---,0.00,VWS V14.01,2013-04-07 03:01:00,
2013-04-06 19:03:00,6.2,-6.9,30.00,NW,325,12.0,17.0,54,0.00,,---,0.00,VWS V14.01,2013-04-07 03:03:00,
2013-04-06 19:04:00,6.1,-7.0,30.00,NNW,336,10.0,17.0,54,0.00,,---,0.00,VWS V14.01,2013-04-07 03:04:00,
2013-04-06 19:05:00,6.1,-7.0,29.99,NW,308,9.0,19.0,54,0.00,,---,0.00,VWS V14.01,2013-04-07 03:05:00,
2013-04-06 19:07:00,6.1,-7.3,29.99,NW,325,10.0,10.0,53,0.00,,---,0.00,VWS V14.01,2013-04-07 03:07:00,
2013-04-06 19:08:00,6.2,-6.9,29.99,NW,320,13.0,16.0,54,0.00,,---,0.00,VWS V14.01,2013-04-07 03:08:00,
2013-04-06 19:13:00,6.2,-6.9,29.99,NNW,336,6.0,16.0,54,0.00,,---,0.00,VWS V14.01,2013-04-07 03:13:00,
2013-04-06 19:18:00,6.3,-7.2,29.99,NW,318,10.0,20.0,53,0.00,,---,0.00,VWS V14.01,2013-04-07 03:18:00,
2013-04-06 19:19:00,6.2,-7.3,29.99,NW,310,8.0,20.0,53,0.00,,---,0.00,VWS V14.01,2013-04-07 03:19:00,
2013-04-06 19:23:00,6.2,-7.3,29.99,NW,317,12.0,17.0,53,0.00,,---,0.00,VWS V14.01,2013-04-07 03:23:00,
2013-04-06 19:24:00,6.2,-7.3,29.99,NW,312,13.0,17.0,53,0.00,,---,0.00,VWS V14.01,2013-04-07 03:24:00,
2013-04-06 19:29:00,6.1,-7.7,29.98,NNW,331,12.0,17.0,52,0.00,,---,0.00,VWS V14.01,2013-04-07 03:29:00,
2013-04-06 19:32:00,5.9,-7.5,29.98,NNW,341,21.0,23.0,53,0.00,,---,0.00,VWS V14.01,2013-04-07 03:32:00,
2013-04-06 19:33:00,5.8,-7.6,29.98,NNW,333,11.0,24.0,53,0.00,,---,0.00,VWS V14.01,2013-04-07 03:33:00,
2013-04-06 19:34:00,5.8,-7.6,29.98,NW,324,14.0,24.0,53,0.00,,---,0.00,VWS V14.01,2013-04-07 03:34:00,
2013-04-06 19:37:00,5.8,-7.2,29.98,NNW,331,17.0,20.0,54,0.00,,---,0.00,VWS V14.01,2013-04-07 03:37:00,
2013-04-06 19:39:00,5.7,-7.0,29.98,NW,324,19.0,24.0,55,0.00,,---,0.00,VWS V14.01,2013-04-07 03:39:00,
2013-04-06 19:40:00,5.6,-7.1,29.98,NW,325,15.0,24.0,55,0.00,,---,0.00,VWS V14.01,2013-04-07 03:40:00,
2013-04-06 19:41:00,5.6,-6.7,29.98,NNW,329,21.0,24.0,56,0.00,,---,0.00,VWS V14.01,2013-04-07 03:41:00,
2013-04-06 19:44:00,5.6,-6.7,29.98,NNW,327,17.0,22.0,56,0.00,,---,0.00,VWS V14.01,2013-04-07 03:44:00,
2013-04-06 19:45:00,5.7,-7.0,29.99,NNW,329,18.0,22.0,55,0.00,,---,0.00,VWS V14.01,2013-04-07 03:45:00,
2013-04-06 19:47:00,5.8,-6.9,29.99,NNW,337,9.0,22.0,55,0.00,,---,0.00,VWS V14.01,2013-04-07 03:47:00,
2013-04-06 19:49:00,5.9,-6.8,29.99,NW,316,11.0,17.0,55,0.00,,---,0.00,VWS V14.01,2013-04-07 03:49:00,
2013-04-06 19:50:00,5.9,-6.8,29.99,NW,306,9.0,17.0,55,0.00,,---,0.00,VWS V14.01,2013-04-07 03:50:00,
2013-04-06 19:55:00,6.1,-6.6,30.00,NW,315,10.0,13.0,55,0.00,,---,0.00,VWS V14.01,2013-04-07 03:55:00,
2013-04-06 19:56:00,6.0,-6.3,29.99,NNW,331,7.0,13.0,56,0.00,,---,0.00,VWS V14.01,2013-04-07 03:56:00,
2013-04-06 20:00:00,5.9,-6.4,29.99,WNW,294,10.0,16.0,56,0.00,,---,0.00,VWS V14.01,2013-04-07 04:00:00,
2013-04-06 20:01:00,5.8,-6.1,29.99,NW,309,7.0,16.0,57,0.00,,---,0.00,VWS V14.01,2013-04-07 04:01:00,
2013-04-06 20:05:00,5.4,-6.5,29.99,NNW,336,14.0,14.0,57,0.00,,---,0.00,VWS V14.01,2013-04-07 04:05:00,
2013-04-06 20:06:00,5.3,-6.6,29.99,North,355,13.0,14.0,57,0.00,,---,0.00,VWS V14.01,2013-04-07 04:06:00,
2013-04-06 20:07:00,5.3,-6.6,30.00,North,5,11.0,12.0,57,0.00,,---,0.00,VWS V14.01,2013-04-07 04:07:00,
2013-04-06 20:11:00,5.1,-6.8,30.00,NNW,340,10.0,15.0,57,0.00,,---,0.00,VWS V14.01,2013-04-07 04:11:00,
2013-04-06 20:12:00,5.2,-6.7,29.99,NNW,329,9.0,12.0,57,0.00,,---,0.00,VWS V14.01,2013-04-07 04:12:00,
2013-04-06 20:16:00,5.1,-6.4,29.99,NNW,342,9.0,14.0,58,0.00,,---,0.00,VWS V14.01,2013-04-07 04:16:00,
2013-04-06 20:17:00,5.1,-7.2,29.99,North,355,6.0,9.0,56,0.00,,---,0.00,VWS V14.01,2013-04-07 04:17:00,
2013-04-06 20:21:00,5.1,-7.2,29.99,North,360,11.0,13.0,56,0.00,,---,0.00,VWS V14.01,2013-04-07 04:21:00,
2013-04-06 20:22:00,5.1,-7.2,29.99,North,5,13.0,13.0,56,0.00,,---,0.00,VWS V14.01,2013-04-07 04:22:00,
2013-04-06 20:23:00,5.0,-7.3,29.99,North,360,10.0,14.0,56,0.00,,---,0.00,VWS V14.01,2013-04-07 04:23:00,
2013-04-06 20:26:00,4.7,-6.8,29.98,NNW,338,10.0,15.0,58,0.00,,---,0.00,VWS V14.01,2013-04-07 04:26:00,
2013-04-06 20:27:00,4.7,-6.5,29.98,NNW,343,12.0,16.0,59,0.00,,---,0.00,VWS V14.01,2013-04-07 04:27:00,
2013-04-06 20:28:00,4.6,-6.6,29.98,NNW,333,13.0,16.0,59,0.00,,---,0.00,VWS V14.01,2013-04-07 04:28:00,
2013-04-06 20:34:00,4.4,-6.8,29.98,North,355,11.0,16.0,59,0.00,,---,0.00,VWS V14.01,2013-04-07 04:34:00,
2013-04-06 20:40:00,4.4,-6.8,29.98,North,360,15.0,22.0,59,0.00,,---,0.00,VWS V14.01,2013-04-07 04:40:00,
2013-04-06 20:42:00,4.4,-6.4,29.98,North,350,11.0,13.0,60,0.00,,---,0.00,VWS V14.01,2013-04-07 04:42:00,
2013-04-06 20:45:00,4.0,-5.8,29.98,NNW,346,12.0,18.0,63,0.00,,---,0.00,VWS V14.01,2013-04-07 04:45:00,
2013-04-06 20:46:00,3.8,-5.6,29.98,North,355,7.0,18.0,64,0.00,,---,0.00,VWS V14.01,2013-04-07 04:46:00,
2013-04-06 20:47:00,3.7,-5.7,29.98,NNE,12,8.0,10.0,64,0.00,,---,0.00,VWS V14.01,2013-04-07 04:47:00,
2013-04-06 20:49:00,3.6,-5.5,29.98,NNW,338,6.0,13.0,65,0.00,,---,0.00,VWS V14.01,2013-04-07 04:49:00,
2013-04-06 20:50:00,3.6,-5.5,29.98,NNW,336,5.0,13.0,65,0.00,,---,0.00,VWS V14.01,2013-04-07 04:50:00,
2013-04-06 20:51:00,3.7,-5.4,29.99,NW,323,6.0,13.0,65,0.00,,---,0.00,VWS V14.01,2013-04-07 04:51:00,
2013-04-06 20:53:00,3.7,-5.7,29.99,NNW,344,6.0,12.0,64,0.00,,---,0.00,VWS V14.01,2013-04-07 04:53:00,
2013-04-06 20:54:00,3.7,-5.7,29.99,NNW,348,6.0,12.0,64,0.00,,---,0.00,VWS V14.01,2013-04-07 04:54:00,
2013-04-06 20:55:00,3.7,-5.7,29.99,NNW,340,3.0,12.0,64,0.00,,---,0.00,VWS V14.01,2013-04-07 04:55:00,
2013-04-06 20:56:00,3.7,-5.7,29.99,North,11,7.0,12.0,64,0.00,,---,0.00,VWS V14.01,2013-04-07 04:56:00,
2013-04-06 21:00:00,3.6,-5.8,29.99,North,355,12.0,12.0,64,0.00,,---,0.00,VWS V14.01,2013-04-07 05:00:00,
2013-04-06 21:02:00,3.5,-5.9,29.99,NNE,18,7.0,8.0,64,0.00,,---,0.00,VWS V14.01,2013-04-07 05:02:00,
2013-04-06 21:03:00,3.5,-5.9,29.99,North,355,6.0,8.0,64,0.00,,---,0.00,VWS V14.01,2013-04-07 05:03:00,
2013-04-06 21:07:00,3.3,-6.1,29.98,NNW,336,3.0,13.0,64,0.00,,---,0.00,VWS V14.01,2013-04-07 05:07:00,
2013-04-06 21:08:00,3.3,-6.1,29.98,NNE,23,5.0,9.0,64,0.00,,---,0.00,VWS V14.01,2013-04-07 05:08:00,
2013-04-06 21:15:00,3.0,-6.4,29.98,North,355,21.0,21.0,64,0.00,,---,0.00,VWS V14.01,2013-04-07 05:15:00,
2013-04-06 21:17:00,3.0,-6.4,29.98,NNW,337,11.0,16.0,64,0.00,,---,0.00,VWS V14.01,2013-04-07 05:17:00,
2013-04-06 21:20:00,2.8,-6.3,29.98,NNW,346,21.0,25.0,65,0.00,,---,0.00,VWS V14.01,2013-04-07 05:20:00,
2013-04-06 21:25:00,2.5,-6.2,29.98,North,360,21.0,22.0,66,0.00,,---,0.00,VWS V14.01,2013-04-07 05:25:00,
2013-04-06 21:26:00,2.5,-6.2,29.98,NW,323,19.0,23.0,66,0.00,,---,0.00,VWS V14.01,2013-04-07 05:26:00,
2013-04-06 21:30:00,2.6,-5.8,29.97,NW,320,17.0,24.0,67,0.00,,---,0.00,VWS V14.01,2013-04-07 05:30:00,
2013-04-06 21:31:00,2.6,-5.8,29.97,North,349,16.0,24.0,67,0.00,,---,0.00,VWS V14.01,2013-04-07 05:31:00,
2013-04-06 21:36:00,2.4,-5.7,29.96,NNW,339,18.0,26.0,68,0.00,,---,0.00,VWS V14.01,2013-04-07 05:36:00,
2013-04-06 21:37:00,2.3,-5.5,29.96,NNW,336,16.0,27.0,69,0.00,,---,0.00,VWS V14.01,2013-04-07 05:37:00,
2013-04-06 21:41:00,2.2,-5.3,29.97,NW,317,20.0,25.0,70,0.00,,---,0.00,VWS V14.01,2013-04-07 05:41:00,
2013-04-06 21:42:00,2.2,-5.3,29.97,NNW,346,15.0,18.0,70,0.00,,---,0.00,VWS V14.01,2013-04-07 05:42:00,
2013-04-06 21:45:00,2.2,-5.6,29.97,NNW,331,13.0,22.0,69,0.00,,---,0.00,VWS V14.01,2013-04-07 05:45:00,
2013-04-06 21:48:00,2.3,-5.5,29.97,NW,314,17.0,22.0,69,0.00,,---,0.00,VWS V14.01,2013-04-07 05:48:00,
2013-04-06 21:52:00,2.3,-5.5,29.97,NNW,338,13.0,22.0,69,0.00,,---,0.00,VWS V14.01,2013-04-07 05:52:00,
2013-04-06 21:58:00,2.3,-5.5,29.97,NW,312,15.0,22.0,69,0.00,,---,0.00,VWS V14.01,2013-04-07 05:58:00,
2013-04-06 21:59:00,2.3,-5.5,29.98,NNW,344,15.0,21.0,69,0.00,,---,0.00,VWS V14.01,2013-04-07 05:59:00,
2013-04-06 22:00:00,2.4,-5.7,29.98,NNW,345,15.0,21.0,68,0.00,,---,0.00,VWS V14.01,2013-04-07 06:00:00,
2013-04-06 22:03:00,2.2,-5.9,29.98,NW,304,17.0,22.0,68,0.00,,---,0.00,VWS V14.01,2013-04-07 06:03:00,
2013-04-06 22:04:00,2.2,-5.9,29.97,NW,308,16.0,22.0,68,0.00,,---,0.00,VWS V14.01,2013-04-07 06:04:00,
2013-04-06 22:05:00,2.2,-5.9,29.97,NW,323,22.0,22.0,68,0.00,,---,0.00,VWS V14.01,2013-04-07 06:05:00,
2013-04-06 22:09:00,2.3,-6.1,29.97,NW,313,18.0,23.0,67,0.00,,---,0.00,VWS V14.01,2013-04-07 06:09:00,
2013-04-06 22:10:00,2.3,-5.5,29.97,WNW,300,8.0,23.0,69,0.00,,---,0.00,VWS V14.01,2013-04-07 06:10:00,
2013-04-06 22:11:00,2.3,-5.5,29.97,West,277,11.0,23.0,69,0.00,,---,0.00,VWS V14.01,2013-04-07 06:11:00,
2013-04-06 22:14:00,2.2,-5.3,29.97,WNW,303,10.0,18.0,70,0.00,,---,0.00,VWS V14.01,2013-04-07 06:14:00,
2013-04-06 22:16:00,2.2,-5.3,29.97,WNW,294,16.0,18.0,70,0.00,,---,0.00,VWS V14.01,2013-04-07 06:16:00,
2013-04-06 22:22:00,2.0,-5.5,29.97,WNW,297,16.0,19.0,70,0.00,,---,0.00,VWS V14.01,2013-04-07 06:22:00,
2013-04-06 22:27:00,2.1,-6.3,29.97,NNW,335,16.0,16.0,67,0.00,,---,0.00,VWS V14.01,2013-04-07 06:27:00,
2013-04-06 22:28:00,2.2,-6.2,29.97,NW,312,13.0,19.0,67,0.00,,---,0.00,VWS V14.01,2013-04-07 06:28:00,
2013-04-06 22:34:00,2.4,-6.0,29.97,NW,313,22.0,25.0,67,0.00,,---,0.00,VWS V14.01,2013-04-07 06:34:00,
2013-04-06 22:35:00,2.4,-6.0,29.98,NNW,338,15.0,25.0,67,0.00,,---,0.00,VWS V14.01,2013-04-07 06:35:00,
2013-04-06 22:39:00,2.0,-6.4,29.98,NNW,328,20.0,24.0,67,0.00,,---,0.00,VWS V14.01,2013-04-07 06:39:00,
2013-04-06 22:40:00,2.1,-6.3,29.98,NNW,334,18.0,24.0,67,0.00,,---,0.00,VWS V14.01,2013-04-07 06:40:00,
2013-04-06 22:42:00,2.1,-6.6,29.98,North,9,21.0,23.0,66,0.00,,---,0.00,VWS V14.01,2013-04-07 06:42:00,
2013-04-06 22:47:00,2.0,-6.4,29.98,NNE,17,20.0,25.0,67,0.00,,---,0.00,VWS V14.01,2013-04-07 06:47:00,
2013-04-06 22:52:00,1.8,-6.6,29.98,NNW,329,12.0,20.0,67,0.00,,---,0.00,VWS V14.01,2013-04-07 06:52:00,
2013-04-06 22:53:00,1.8,-6.6,29.98,North,5,23.0,25.0,67,0.00,,---,0.00,VWS V14.01,2013-04-07 06:53:00,
2013-04-06 22:57:00,1.7,-6.7,29.98,North,355,16.0,24.0,67,0.00,,---,0.00,VWS V14.01,2013-04-07 06:57:00,
2013-04-06 22:58:00,1.7,-6.7,29.98,North,355,16.0,24.0,67,0.00,,---,0.00,VWS V14.01,2013-04-07 06:58:00,
2013-04-06 22:59:00,1.7,-6.7,29.98,NW,322,15.0,24.0,67,0.00,,---,0.00,VWS V14.01,2013-04-07 06:59:00,
2013-04-06 23:04:00,1.6,-6.8,29.98,NNW,348,18.0,24.0,67,0.00,,---,0.00,VWS V14.01,2013-04-07 07:04:00,
2013-04-06 23:05:00,1.5,-6.6,29.98,NNE,15,17.0,24.0,68,0.00,,---,0.00,VWS V14.01,2013-04-07 07:05:00,
2013-04-06 23:09:00,1.4,-5.8,29.98,WNW,292,8.0,23.0,71,0.00,,---,0.00,VWS V14.01,2013-04-07 07:09:00,
2013-04-06 23:14:00,1.4,-5.5,29.98,NW,322,14.0,23.0,72,0.00,,---,0.00,VWS V14.01,2013-04-07 07:14:00,
2013-04-06 23:15:00,1.4,-5.5,29.98,WNW,297,16.0,23.0,72,0.00,,---,0.00,VWS V14.01,2013-04-07 07:15:00,
2013-04-06 23:18:00,1.4,-5.5,29.99,NW,321,14.0,22.0,72,0.00,,---,0.00,VWS V14.01,2013-04-07 07:18:00,
2013-04-06 23:23:00,1.4,-5.5,29.99,WNW,294,19.0,23.0,72,0.00,,---,0.00,VWS V14.01,2013-04-07 07:23:00,
2013-04-06 23:24:00,1.4,-5.5,29.98,WNW,297,14.0,25.0,72,0.00,,---,0.00,VWS V14.01,2013-04-07 07:24:00,
2013-04-06 23:25:00,1.4,-5.5,29.98,NW,311,19.0,24.0,72,0.00,,---,0.00,VWS V14.01,2013-04-07 07:25:00,
2013-04-06 23:26:00,1.4,-5.5,29.98,WNW,291,15.0,24.0,72,0.00,,---,0.00,VWS V14.01,2013-04-07 07:26:00,
2013-04-06 23:27:00,1.4,-5.5,29.98,NW,320,12.0,24.0,72,0.00,,---,0.00,VWS V14.01,2013-04-07 07:27:00,
2013-04-06 23:29:00,1.4,-5.2,29.98,NW,309,8.0,24.0,73,0.00,,---,0.00,VWS V14.01,2013-04-07 07:29:00,
2013-04-06 23:30:00,1.4,-5.5,29.99,WNW,292,15.0,23.0,72,0.00,,---,0.00,VWS V14.01,2013-04-07 07:30:00,
2013-04-06 23:32:00,1.4,-5.5,29.99,NW,317,13.0,23.0,72,0.00,,---,0.00,VWS V14.01,2013-04-07 07:32:00,
2013-04-06 23:33:00,1.2,-5.4,29.98,WNW,297,18.0,23.0,73,0.00,,---,0.00,VWS V14.01,2013-04-07 07:33:00,
2013-04-06 23:35:00,1.2,-5.4,29.99,NW,306,15.0,15.0,73,0.00,,---,0.00,VWS V14.01,2013-04-07 07:35:00,
2013-04-06 23:37:00,1.0,-5.6,30.00,NW,319,4.0,9.0,73,0.00,,---,0.00,VWS V14.01,2013-04-07 07:37:00,
2013-04-06 23:40:00,1.0,-5.6,30.00,NNW,331,5.0,9.0,73,0.00,,---,0.00,VWS V14.01,2013-04-07 07:40:00,
2013-04-06 23:41:00,1.0,-5.6,30.00,West,277,0.0,9.0,73,0.00,,---,0.00,VWS V14.01,2013-04-07 07:41:00,
2013-04-06 23:43:00,0.9,-5.7,30.01,WNW,287,3.0,9.0,73,0.00,,---,0.00,VWS V14.01,2013-04-07 07:43:00,
2013-04-06 23:44:00,0.9,-5.7,30.01,NW,313,8.0,9.0,73,0.00,,---,0.00,VWS V14.01,2013-04-07 07:44:00,
2013-04-06 23:45:00,0.9,-5.4,30.01,West,276,5.0,10.0,74,0.00,,---,0.00,VWS V14.01,2013-04-07 07:45:00,
2013-04-06 23:46:00,0.9,-5.4,30.01,West,264,3.0,10.0,74,0.00,,---,0.00,VWS V14.01,2013-04-07 07:46:00,
2013-04-06 23:47:00,0.9,-5.4,30.01,WNW,290,1.0,7.0,74,0.00,,---,0.00,VWS V14.01,2013-04-07 07:47:00,
2013-04-06 23:50:00,1.0,-5.3,30.02,WNW,283,1.0,7.0,74,0.00,,---,0.00,VWS V14.01,2013-04-07 07:50:00,
2013-04-06 23:51:00,1.0,-5.3,30.02,West,275,4.0,7.0,74,0.00,,---,0.00,VWS V14.01,2013-04-07 07:51:00,
2013-04-06 23:53:00,0.9,-5.4,30.02,West,267,3.0,7.0,74,0.00,,---,0.00,VWS V14.01,2013-04-07 07:53:00,
2013-04-06 23:55:00,1.0,-5.6,30.02,WSW,247,0.0,0.0,73,0.00,,---,0.00,VWS V14.01,2013-04-07 07:55:00,
2013-04-06 23:57:00,0.9,-5.7,30.02,WSW,247,3.0,3.0,73,0.00,,---,0.00,VWS V14.01,2013-04-07 07:57:00,